sat.trackr.live / text

‹ back to catalog

STARLINK-4334

NORAD 53665 · 2022-105T

PAYLOAD ACTIVE UNKNOWN

§ Identity

Operator
Country
US
Launch date
2022-08-31
Launch site
AFWTR
Launch vehicle
Mass (kg)
RCS (m²)

Purposes: comms

External: N2YO · Heavens-Above · Gunter

§ Orbital elements

Epoch: 2026-09-20T22:00:03.000096Z

Period
92.95 min
Inclination
97.5160°
Eccentricity
0.0000898
Mean motion
15.49267926 rev/d
Perigee alt
418.3 km
Apogee alt
419.5 km
Semi-major
6,797.0 km
B*
2.1997e-2
RAAN
152.5109°
Arg perigee
98.5526°
Mean anomaly
81.0279°
Rev number
577

§ Raw data

STARLINK-43341 53665U 22105T   26263.91670139  .01333135  00000+0  21997-1 0  99972 53665  97.5160 152.5109 0000898  98.5526  81.0279 15.49267926  5775

JSON: /api/v1/satellites/53665 · /tle

For live sub-satellite position, see the globe view (requires WebGL).

§ Visibility from observer

Set your observer location to see the next 7 days of passes ≥ 10°. The values pass through the URL so the page stays shareable.

No JS? Fill the form by hand. The geolocation button needs JavaScript.